| time (UTC) | temp F | wind direction | speed MPH | gust MPH | rain 1hr in | rain 24hr in | rain mn in | humidity % | barometer mb |
| 20260509224503 | 81 | 319 | 0.0 | 3.0 | 0.00 | 0.25 | 0.00 | 41 | 1007.5 |
| 20260509223624 | 80 | 332 | 1.0 | 5.0 | 0.00 | 0.25 | 0.00 | 40 | 1007.6 |
| 20260509222703 | 80 | 332 | 1.0 | 8.0 | 0.00 | 0.25 | 0.00 | 39 | 1007.6 |
| 20260509221803 | 80 | 311 | 1.0 | 4.0 | 0.00 | 0.25 | 0.00 | 40 | 1007.7 |
| 20260509220903 | 80 | 323 | 1.0 | 8.0 | 0.00 | 0.25 | 0.00 | 40 | 1007.7 |
| 20260509220003 | 80 | 334 | 3.0 | 8.0 | 0.00 | 0.25 | 0.00 | 37 | 1007.6 |
| 20260509215403 | 80 | 333 | 2.0 | 7.0 | 0.00 | 0.25 | 0.00 | 39 | 1007.6 |
| 20260509214504 | 80 | 340 | 2.0 | 9.0 | 0.00 | 0.25 | 0.00 | 38 | 1007.6 |
| 20260509213603 | 80 | 335 | 2.0 | 7.0 | 0.00 | 0.25 | 0.00 | 37 | 1007.7 |
| 20260509212703 | 80 | 334 | 2.0 | 9.0 | 0.00 | 0.25 | 0.00 | 42 | 1007.8 |
| 20260509211803 | 80 | 330 | 2.0 | 5.0 | 0.00 | 0.25 | 0.00 | 38 | 1007.8 |
| 20260509210903 | 79 | 336 | 2.0 | 13.0 | 0.00 | 0.25 | 0.00 | 39 | 1007.9 |
| 20260509210003 | 80 | 331 | 2.0 | 13.0 | 0.00 | 0.25 | 0.00 | 38 | 1008.0 |
| 20260509205403 | 80 | 301 | 2.0 | 7.0 | 0.00 | 0.25 | 0.00 | 40 | 1008.0 |
| 20260509204524 | 80 | 257 | 1.0 | 7.0 | 0.00 | 0.25 | 0.00 | 39 | 1008.1 |
| 20260509203603 | 79 | 335 | 2.0 | 9.0 | 0.00 | 0.25 | 0.00 | 42 | 1008.1 |
| 20260509202724 | 79 | 334 | 3.0 | 12.0 | 0.00 | 0.25 | 0.00 | 40 | 1008.2 |
| 20260509201824 | 79 | 342 | 3.0 | 10.0 | 0.00 | 0.25 | 0.00 | 41 | 1008.2 |
| 20260509200903 | 79 | 336 | 4.0 | 14.0 | 0.00 | 0.25 | 0.00 | 38 | 1008.3 |
| 20260509200004 | 79 | 342 | 2.0 | 10.0 | 0.00 | 0.25 | 0.00 | 40 | 1008.2 |
| 20260509195403 | 79 | 247 | 2.0 | 11.0 | 0.00 | 0.25 | 0.00 | 44 | 1008.2 |
| 20260509194503 | 79 | 330 | 2.0 | 11.0 | 0.00 | 0.25 | 0.00 | 43 | 1008.3 |
| 20260509193603 | 78 | 336 | 4.0 | 11.0 | 0.00 | 0.25 | 0.00 | 44 | 1008.4 |
| 20260509192724 | 78 | 324 | 2.0 | 8.0 | 0.00 | 0.25 | 0.00 | 45 | 1008.3 |
| 20260509191803 | 78 | 330 | 2.0 | 8.0 | 0.00 | 0.25 | 0.00 | 48 | 1008.4 |
| 20260509190903 | 78 | 333 | 2.0 | 9.0 | 0.00 | 0.25 | 0.00 | 49 | 1008.6 |
| 20260509190003 | 78 | 335 | 3.0 | 9.0 | 0.00 | 0.25 | 0.00 | 47 | 1008.7 |
| 20260509185424 | 77 | 333 | 2.0 | 9.0 | 0.00 | 0.25 | 0.00 | 48 | 1008.6 |
| 20260509184503 | 77 | 335 | 3.0 | 11.0 | 0.00 | 0.25 | 0.00 | 51 | 1008.6 |
| 20260509183624 | 77 | 320 | 2.0 | 12.0 | 0.00 | 0.25 | 0.00 | 53 | 1008.7 |
| 20260509182703 | 77 | 217 | 1.0 | 7.0 | 0.00 | 0.25 | 0.00 | 52 | 1008.7 |
| 20260509181803 | 76 | 338 | 2.0 | 10.0 | 0.00 | 0.25 | 0.00 | 53 | 1008.7 |
| 20260509180903 | 76 | 336 | 2.0 | 10.0 | 0.00 | 0.25 | 0.00 | 54 | 1008.7 |
| 20260509180004 | 75 | 340 | 4.0 | 11.0 | 0.00 | 0.25 | 0.00 | 54 | 1008.8 |
| 20260509175403 | 75 | 343 | 2.0 | 10.0 | 0.00 | 0.25 | 0.00 | 56 | 1008.9 |
| 20260509174503 | 74 | 336 | 4.0 | 15.0 | 0.00 | 0.25 | 0.00 | 58 | 1009.0 |
| 20260509173624 | 74 | 333 | 4.0 | 15.0 | 0.00 | 0.25 | 0.00 | 56 | 1009.1 |
| 20260509172703 | 73 | 335 | 4.0 | 11.0 | 0.00 | 0.25 | 0.00 | 57 | 1009.2 |
| 20260509171803 | 74 | 337 | 2.0 | 11.0 | 0.00 | 0.25 | 0.00 | 58 | 1009.2 |
| 20260509170903 | 73 | 329 | 2.0 | 9.0 | 0.00 | 0.25 | 0.00 | 58 | 1009.4 |
| 20260509170003 | 73 | 319 | 1.0 | 9.0 | 0.00 | 0.25 | 0.00 | 58 | 1009.4 |
| 20260509165403 | 72 | 335 | 1.0 | 7.0 | 0.00 | 0.25 | 0.00 | 61 | 1009.3 |
| 20260509164503 | 72 | 315 | 2.0 | 7.0 | 0.00 | 0.25 | 0.00 | 62 | 1009.4 |
| 20260509163603 | 71 | 277 | 1.0 | 7.0 | 0.00 | 0.25 | 0.00 | 62 | 1009.5 |
| 20260509162703 | 70 | 151 | 1.0 | 6.0 | 0.00 | 0.25 | 0.00 | 67 | 1009.5 |
| 20260509161803 | 70 | 148 | 1.0 | 4.0 | 0.00 | 0.25 | 0.00 | 71 | 1009.4 |
| 20260509160903 | 69 | 329 | 1.0 | 5.0 | 0.00 | 0.25 | 0.00 | 71 | 1009.4 |
| 20260509160003 | 68 | 145 | 1.0 | 7.0 | 0.00 | 0.25 | 0.00 | 75 | 1009.4 |
| 20260509155403 | 68 | 214 | 1.0 | 6.0 | 0.00 | 0.25 | 0.00 | 75 | 1009.4 |
| 20260509154503 | 67 | 260 | 1.0 | 4.0 | 0.00 | 0.25 | 0.00 | 77 | 1009.3 |
| 20260509153603 | 66 | 197 | 0.0 | 3.0 | 0.00 | 0.25 | 0.00 | 80 | 1009.3 |
| 20260509152703 | 65 | 150 | 1.0 | 3.0 | 0.00 | 0.25 | 0.00 | 83 | 1009.4 |
| 20260509151803 | 64 | 3 | 1.0 | 6.0 | 0.00 | 0.25 | 0.00 | 82 | 1009.4 |
| 20260509150903 | 64 | 160 | 1.0 | 4.0 | 0.00 | 0.25 | 0.00 | 85 | 1009.3 |
| 20260509150024 | 63 | 164 | 1.0 | 5.0 | 0.00 | 0.25 | 0.00 | 86 | 1009.3 |
| 20260509145424 | 63 | 206 | 1.0 | 6.0 | 0.00 | 0.25 | 0.00 | 86 | 1009.3 |
| 20260509144524 | 62 | 348 | 1.0 | 6.0 | 0.00 | 0.25 | 0.00 | 87 | 1009.3 |
| 20260509143603 | 62 | 175 | 1.0 | 4.0 | 0.00 | 0.25 | 0.00 | 89 | 1009.2 |
| 20260509142703 | 61 | 173 | 1.0 | 4.0 | 0.00 | 0.25 | 0.00 | 90 | 1009.2 |
| 20260509141803 | 60 | 334 | 2.0 | 6.0 | 0.00 | 0.25 | 0.00 | 90 | 1009.2 |
| 20260509140924 | 60 | 232 | 1.0 | 5.0 | 0.00 | 0.25 | 0.00 | 91 | 1009.1 |
| 20260509140025 | 60 | 131 | 0.0 | 3.0 | 0.00 | 0.25 | 0.00 | 91 | 1009.0 |
| 20260509135403 | 60 | 149 | 0.0 | 2.0 | 0.00 | 0.25 | 0.00 | 91 | 1009.0 |
| 20260509134503 | 59 | 291 | 0.0 | 3.0 | 0.00 | 0.25 | 0.00 | 92 | 1009.1 |
| 20260509133603 | 59 | 158 | 0.0 | 4.0 | 0.00 | 0.25 | 0.00 | 93 | 1008.9 |
| 20260509132703 | 58 | 129 | 1.0 | 4.0 | 0.00 | 0.25 | 0.00 | 93 | 1009.0 |
| 20260509131803 | 58 | 175 | 1.0 | 3.0 | 0.00 | 0.25 | 0.00 | 93 | 1009.0 |
| 20260509130903 | 58 | 240 | 1.0 | 4.0 | 0.00 | 0.25 | 0.00 | 93 | 1009.1 |
| 20260509130003 | 58 | 264 | 0.0 | 2.0 | 0.00 | 0.25 | 0.00 | 94 | 1009.0 |
| 20260509125403 | 58 | 271 | 0.0 | 3.0 | 0.00 | 0.25 | 0.00 | 94 | 1009.1 |
| 20260509124503 | 58 | 208 | 1.0 | 5.0 | 0.00 | 0.25 | 0.00 | 94 | 1009.1 |
| 20260509123603 | 58 | 178 | 1.0 | 3.0 | 0.00 | 0.25 | 0.00 | 94 | 1009.1 |
| 20260509122703 | 58 | 179 | 0.0 | 1.0 | 0.00 | 0.25 | 0.00 | 95 | 1009.0 |
| 20260509121803 | 58 | 242 | 0.0 | 1.0 | 0.00 | 0.25 | 0.00 | 95 | 1009.1 |
| 20260509120903 | 57 | 322 | 0.0 | 3.0 | 0.00 | 0.25 | 0.00 | 95 | 1008.9 |
| 20260509120003 | 57 | 6 | 0.0 | 2.0 | 0.00 | 0.25 | 0.00 | 95 | 1008.7 |
| 20260509115403 | 57 | 345 | 0.0 | 3.0 | 0.00 | 0.25 | 0.00 | 95 | 1008.7 |
| 20260509114503 | 57 | 308 | 0.0 | 4.0 | 0.00 | 0.25 | 0.00 | 95 | 1008.8 |
| 20260509113603 | 57 | 340 | 0.0 | 2.0 | 0.00 | 0.25 | 0.00 | 95 | 1008.7 |
| 20260509112703 | 57 | 277 | 0.0 | 3.0 | 0.00 | 0.25 | 0.00 | 95 | 1008.6 |
| 20260509111824 | 57 | 190 | 0.0 | 3.0 | 0.00 | 0.25 | 0.00 | 95 | 1008.6 |
| 20260509110903 | 57 | 238 | 0.0 | 2.0 | 0.00 | 0.25 | 0.00 | 95 | 1008.7 |
| 20260509110003 | 57 | 188 | 0.0 | 3.0 | 0.00 | 0.25 | 0.00 | 95 | 1008.6 |
| 20260509105403 | 57 | 184 | 0.0 | 3.0 | 0.00 | 0.25 | 0.00 | 95 | 1008.6 |
| 20260509104503 | 57 | 203 | 0.0 | 3.0 | 0.00 | 0.25 | 0.00 | 95 | 1008.6 |
| 20260509103603 | 57 | 318 | 1.0 | 4.0 | 0.00 | 0.25 | 0.00 | 95 | 1008.6 |
| 20260509102703 | 57 | 314 | 1.0 | 8.0 | 0.00 | 0.25 | 0.00 | 95 | 1008.4 |
| 20260509101803 | 57 | 333 | 1.0 | 6.0 | 0.00 | 0.25 | 0.00 | 95 | 1008.4 |
| 20260509100903 | 57 | 197 | 1.0 | 3.0 | 0.00 | 0.25 | 0.00 | 95 | 1008.2 |
| 20260509100004 | 57 | 174 | 1.0 | 4.0 | 0.00 | 0.25 | 0.00 | 95 | 1008.2 |
| 20260509095403 | 57 | 170 | 0.0 | 2.0 | 0.00 | 0.25 | 0.00 | 95 | 1008.2 |
| 20260509094524 | 57 | 264 | 0.0 | 1.0 | 0.00 | 0.25 | 0.00 | 95 | 1008.0 |
| 20260509093603 | 57 | 151 | 0.0 | 2.0 | 0.00 | 0.25 | 0.00 | 95 | 1008.0 |
| 20260509092703 | 57 | 180 | 0.0 | 4.0 | 0.00 | 0.25 | 0.00 | 95 | 1008.1 |
| 20260509091824 | 57 | 231 | 0.0 | 2.0 | 0.00 | 0.25 | 0.00 | 95 | 1008.0 |
| 20260509090903 | 57 | 236 | 0.0 | 2.0 | 0.00 | 0.25 | 0.00 | 95 | 1007.9 |
| 20260509090004 | 57 | 135 | 0.0 | 1.0 | 0.00 | 0.25 | 0.00 | 95 | 1007.9 |
| 20260509085403 | 57 | 0 | 0.0 | 1.0 | 0.00 | 0.25 | 0.00 | 95 | 1007.9 |
| 20260509084503 | 57 | 252 | 0.0 | 3.0 | 0.00 | 0.25 | 0.00 | 95 | 1007.8 |
| 20260509083603 | 57 | 172 | 0.0 | 4.0 | 0.00 | 0.25 | 0.00 | 95 | 1008.0 |
| 20260509082703 | 57 | 203 | 0.0 | 1.0 | 0.00 | 0.25 | 0.00 | 95 | 1008.0 |
| 20260509081803 | 57 | 152 | 0.0 | 6.0 | 0.00 | 0.25 | 0.00 | 95 | 1008.1 |
| 20260509080903 | 57 | 260 | 0.0 | 3.0 | 0.00 | 0.25 | 0.00 | 95 | 1008.0 |
| 20260509080004 | 57 | 232 | 0.0 | 2.0 | 0.00 | 0.25 | 0.00 | 95 | 1008.0 |
| 20260509075403 | 57 | 0 | 0.0 | 1.0 | 0.00 | 0.25 | 0.00 | 95 | 1008.0 |
| 20260509074524 | 57 | 0 | 0.0 | 0.0 | 0.00 | 0.25 | 0.00 | 95 | 1007.8 |
| 20260509073603 | 57 | 0 | 0.0 | 0.0 | 0.00 | 0.25 | 0.00 | 95 | 1007.9 |
| 20260509072703 | 57 | 0 | 0.0 | 1.0 | 0.00 | 0.25 | 0.00 | 95 | 1007.9 |
| 20260509071824 | 57 | 0 | 0.0 | 0.0 | 0.00 | 0.25 | 0.00 | 95 | 1008.0 |
| 20260509070903 | 57 | 0 | 0.0 | 1.0 | 0.00 | 0.25 | 0.00 | 95 | 1008.0 |
| 20260509070003 | 57 | 0 | 0.0 | 0.0 | 0.00 | 0.25 | 0.00 | 95 | 1007.9 |
| 20260509065403 | 57 | 0 | 0.0 | 0.0 | 0.00 | 0.25 | 0.00 | 95 | 1007.9 |
| 20260509064503 | 57 | 0 | 0.0 | 0.0 | 0.00 | 0.25 | 0.00 | 95 | 1007.9 |
| 20260509063603 | 57 | 0 | 0.0 | 0.0 | 0.00 | 0.25 | 0.00 | 95 | 1008.0 |
| 20260509062703 | 57 | 0 | 0.0 | 0.0 | 0.00 | 0.25 | 0.00 | 95 | 1007.9 |
| 20260509061824 | 57 | 0 | 0.0 | 0.0 | 0.00 | 0.25 | 0.00 | 95 | 1007.9 |
| 20260509060903 | 57 | 123 | 0.0 | 1.0 | 0.00 | 0.25 | 0.00 | 95 | 1008.0 |
| 20260509060004 | 57 | 130 | 0.0 | 1.0 | 0.00 | 0.25 | 0.00 | 95 | 1007.7 |
| 20260509055403 | 57 | 128 | 0.0 | 2.0 | 0.00 | 0.25 | 0.00 | 95 | 1007.9 |
| 20260509054524 | 57 | 130 | 0.0 | 2.0 | 0.00 | 0.25 | 0.00 | 95 | 1008.0 |
| 20260509053603 | 57 | 0 | 0.0 | 0.0 | 0.00 | 0.25 | 0.00 | 95 | 1008.1 |
| 20260509052703 | 58 | 0 | 0.0 | 0.0 | 0.00 | 0.25 | 0.00 | 95 | 1008.2 |
| 20260509051803 | 58 | 0 | 0.0 | 0.0 | 0.00 | 0.25 | 0.00 | 95 | 1008.0 |
| 20260509050903 | 58 | 134 | 0.0 | 1.0 | 0.00 | 0.25 | 0.00 | 94 | 1007.9 |
| 20260509050004 | 58 | 133 | 0.0 | 1.0 | 0.00 | 0.25 | 0.00 | 94 | 1008.0 |
| 20260509045403 | 58 | 0 | 0.0 | 1.0 | 0.00 | 0.25 | 0.25 | 94 | 1007.9 |
| 20260509044503 | 58 | 132 | 0.0 | 1.0 | 0.00 | 0.25 | 0.25 | 94 | 1008.2 |
| 20260509043603 | 58 | 0 | 0.0 | 0.0 | 0.01 | 0.25 | 0.25 | 94 | 1008.3 |
| 20260509042724 | 58 | 0 | 0.0 | 0.0 | 0.02 | 0.25 | 0.25 | 94 | 1008.3 |
| 20260509041805 | 58 | 0 | 0.0 | 0.0 | 0.03 | 0.25 | 0.25 | 94 | 1008.3 |
| 20260509040903 | 58 | 0 | 0.0 | 1.0 | 0.04 | 0.25 | 0.25 | 94 | 1008.4 |
| 20260509040004 | 58 | 0 | 0.0 | 1.0 | 0.06 | 0.25 | 0.25 | 94 | 1008.5 |
| 20260509035403 | 58 | 136 | 0.0 | 5.0 | 0.08 | 0.25 | 0.25 | 94 | 1008.4 |
| 20260509034503 | 58 | 133 | 0.0 | 2.0 | 0.11 | 0.25 | 0.25 | 94 | 1008.6 |
| 20260509033603 | 58 | 0 | 0.0 | 0.0 | 0.15 | 0.24 | 0.24 | 94 | 1009.0 |
| 20260509032703 | 58 | 0 | 0.0 | 0.0 | 0.17 | 0.23 | 0.23 | 93 | 1009.1 |
| 20260509031803 | 58 | 0 | 0.0 | 0.0 | 0.18 | 0.22 | 0.22 | 93 | 1009.2 |
| 20260509030903 | 58 | 0 | 0.0 | 0.0 | 0.18 | 0.21 | 0.21 | 93 | 1009.1 |
| 20260509030003 | 59 | 0 | 0.0 | 0.0 | 0.17 | 0.19 | 0.19 | 93 | 1009.1 |
| 20260509025403 | 59 | 333 | 0.0 | 2.0 | 0.15 | 0.17 | 0.17 | 93 | 1009.2 |
| 20260509024524 | 59 | 316 | 0.0 | 4.0 | 0.12 | 0.14 | 0.14 | 92 | 1009.3 |
| 20260509023603 | 59 | 329 | 1.0 | 8.0 | 0.07 | 0.09 | 0.09 | 92 | 1009.5 |
| 20260509022703 | 60 | 331 | 1.0 | 8.0 | 0.04 | 0.06 | 0.06 | 91 | 1009.3 |
| 20260509021803 | 60 | 322 | 0.0 | 4.0 | 0.02 | 0.04 | 0.04 | 91 | 1009.4 |
| 20260509020903 | 60 | 333 | 0.0 | 2.0 | 0.01 | 0.03 | 0.03 | 91 | 1009.2 |
| 20260509020003 | 60 | 0 | 0.0 | 0.0 | 0.00 | 0.02 | 0.02 | 91 | 1009.1 |
| 20260509015424 | 60 | 0 | 0.0 | 0.0 | 0.00 | 0.02 | 0.02 | 91 | 1008.8 |
| 20260509014503 | 60 | 0 | 0.0 | 0.0 | 0.01 | 0.02 | 0.02 | 91 | 1008.5 |
| 20260509013603 | 60 | 0 | 0.0 | 0.0 | 0.01 | 0.02 | 0.02 | 90 | 1008.3 |
| 20260509012703 | 60 | 0 | 0.0 | 0.0 | 0.01 | 0.02 | 0.02 | 89 | 1008.3 |
| 20260509011803 | 60 | 0 | 0.0 | 0.0 | 0.02 | 0.02 | 0.02 | 88 | 1007.9 |
| 20260509010903 | 61 | 0 | 0.0 | 0.0 | 0.02 | 0.02 | 0.02 | 88 | 1007.7 |
| 20260509010004 | 61 | 322 | 0.0 | 1.0 | 0.02 | 0.02 | 0.02 | 87 | 1007.9 |
| 20260509005403 | 61 | 326 | 0.0 | 6.0 | 0.02 | 0.02 | 0.02 | 86 | 1008.1 |
| 20260509004503 | 62 | 327 | 0.0 | 5.0 | 0.01 | 0.01 | 0.01 | 85 | 1008.0 |
| 20260509003624 | 62 | 322 | 1.0 | 3.0 | 0.01 | 0.01 | 0.01 | 83 | 1008.0 |
| 20260509002704 | 64 | 320 | 1.0 | 5.0 | 0.01 | 0.01 | 0.01 | 78 | 1008.3 |
| 20260509001803 | 65 | 326 | 0.0 | 4.0 | 0.00 | 0.00 | 0.00 | 73 | 1008.4 |
| 20260509000924 | 67 | 321 | 0.0 | 5.0 | 0.00 | 0.00 | 0.00 | 69 | 1008.2 |
| 20260509000004 | 67 | 326 | 1.0 | 4.0 | 0.00 | 0.00 | 0.00 | 67 | 1007.9 |
| 20260508235403 | 68 | 330 | 0.0 | 3.0 | 0.00 | 0.00 | 0.00 | 66 | 1007.9 |
| 20260508234503 | 68 | 328 | 0.0 | 5.0 | 0.00 | 0.00 | 0.00 | 65 | 1008.0 |
| 20260508233603 | 68 | 325 | 1.0 | 4.0 | 0.00 | 0.00 | 0.00 | 63 | 1007.8 |
| 20260508232703 | 69 | 322 | 1.0 | 4.0 | 0.00 | 0.00 | 0.00 | 63 | 1007.9 |
| 20260508231803 | 70 | 328 | 1.0 | 3.0 | 0.00 | 0.00 | 0.00 | 62 | 1008.1 |
| 20260508230903 | 70 | 326 | 0.0 | 5.0 | 0.00 | 0.00 | 0.00 | 61 | 1007.9 |
| 20260508230003 | 70 | 329 | 0.0 | 3.0 | 0.00 | 0.00 | 0.00 | 60 | 1008.0 |
| 20260508225403 | 71 | 326 | 0.0 | 2.0 | 0.00 | 0.00 | 0.00 | 59 | 1008.0 |